Date String (YYYY-MM-DD hh:mm:ss) UTC,Instrument flags,absolute air pressure of the measurement (hPa),sample flow rate (lpm),inlet stack bypass flow (lpm),air temperature of the measurement (°C),ambient temperature measured by the external sensor (°C),aerosol sample conditioner tube jacket temperature (°C),OPC LED temperature (°C),internal box temperature (°C),relative humidity of the measurement (%),span deviation,mass concentration of particles derived from Lorenz-Mie calculation of OPC scattering (μg/m³),mass concentration of particles derived from Lorenz-Mie calculation of OPC scattering (μg/m³),mass concentration of particles derived from Lorenz-Mie calculation of OPC scattering (μg/m³)
DateTimeUTC,F1_M11,P_M11,Q1_M11,Q2_M11,T1_M11,T2_M11,T3_M11,T4_M11,T5_M11,U1_M11,ZSPAN_M11,X2_M11,X0_M11,X1_M11
2023-09-04 15:00:00,SystemResetWarning,0824.7,4.99,000.00,029.2,025.2,000.0,037.0,029.8,32.9,0000.0,0002.51,0005.13,0001.80
2023-09-04 15:01:00,SystemResetWarning,0824.7,5.02,000.00,029.1,024.8,000.0,037.0,029.7,33.2,0000.0,0002.47,0005.48,0001.80
2023-09-04 15:02:00,SystemResetWarning,0824.7,5.00,000.00,029.1,025.0,000.0,037.0,029.6,33.6,0000.0,0002.42,0005.66,0001.80
2023-09-04 15:03:00,SystemResetWarning,0824.7,4.99,000.00,029.0,025.3,000.0,037.0,029.7,34.3,0000.0,0002.42,0005.90,0001.81
2023-09-04 15:04:00,SystemResetWarning,0824.7,5.00,000.00,029.0,025.7,000.0,037.1,029.8,34.0,0000.0,0002.43,0006.42,0001.83
2023-09-04 15:05:00,SystemResetWarning,0824.7,5.01,000.00,029.0,026.1,000.0,037.1,029.9,33.8,0000.0,0002.42,0006.37,0001.84
2023-09-04 15:06:00,SystemResetWarning,0824.7,5.00,000.00,029.0,026.4,000.0,037.1,030.0,33.3,0000.0,0002.47,0006.66,0001.84
2023-09-04 15:07:00,SystemResetWarning,0824.7,5.00,000.00,029.0,026.6,000.0,037.1,030.0,33.1,0000.0,0002.50,0005.97,0001.85
2023-09-04 15:08:00,SystemResetWarning,0824.6,5.00,000.00,029.0,026.9,000.0,037.2,030.1,32.8,0000.0,0002.50,0006.02,0001.87
2023-09-04 15:09:00,SystemResetWarning,0824.6,5.00,000.00,029.1,027.0,000.0,037.2,030.2,32.5,0000.0,0002.50,0006.01,0001.88
2023-09-04 15:10:00,SystemResetWarning,0824.7,5.00,000.00,029.1,027.2,000.0,037.2,030.2,32.2,0000.0,0002.50,0005.91,0001.88
2023-09-04 15:11:00,SystemResetWarning,0824.7,5.00,000.00,029.1,027.4,000.0,037.3,030.3,33.3,0000.0,0002.47,0006.21,0001.88
2023-09-04 15:12:00,SystemResetWarning,0824.7,4.99,000.00,029.1,027.0,000.0,037.2,030.2,33.9,0000.0,0002.46,0006.01,0001.89
2023-09-04 15:13:00,SystemResetWarning,0824.6,4.99,000.00,029.0,025.6,000.0,037.2,029.7,34.1,0000.0,0002.47,0005.93,0001.90
2023-09-04 15:14:00,SystemResetWarning,0824.5,5.01,000.00,028.9,024.8,000.0,037.1,029.5,34.3,0000.0,0002.51,0006.03,0001.91
2023-09-04 15:15:00,SystemResetWarning,0824.4,5.01,000.00,028.8,024.8,000.0,037.0,029.5,34.6,0000.0,0002.56,0005.60,0001.91
2023-09-04 15:16:00,SystemResetWarning,0824.4,5.01,000.00,028.7,025.2,000.0,037.1,029.5,34.7,0000.0,0002.55,0005.53,0001.90
2023-09-04 15:17:00,SystemResetWarning,0824.4,4.97,000.00,028.7,025.5,000.0,037.1,029.6,35.2,0000.0,0002.51,0005.37,0001.90
2023-09-04 15:18:00,SystemResetWarning,0824.4,5.03,000.00,028.8,025.9,000.0,037.1,029.8,35.5,0000.0,0002.49,0005.21,0001.90
2023-09-04 15:19:00,SystemResetWarning,0824.5,4.98,000.00,029.1,026.2,000.0,037.1,030.0,34.4,0000.0,0002.45,0005.04,0001.89
2023-09-04 15:20:00,SystemResetWarning,0824.6,5.01,000.00,029.3,026.5,000.0,037.1,030.2,34.2,0000.0,0002.48,0005.05,0001.89
2023-09-04 15:21:00,SystemResetWarning,0824.5,5.01,000.00,029.4,026.8,000.0,037.1,030.2,33.7,0000.0,0002.51,0005.29,0001.90
2023-09-04 15:22:00,SystemResetWarning,0824.5,5.00,000.00,029.5,027.0,000.0,037.2,030.3,33.2,0000.0,0002.52,0004.99,0001.91
2023-09-04 15:23:00,SystemResetWarning,0824.5,5.00,000.00,029.5,027.1,000.0,037.3,030.3,32.9,0000.0,0002.54,0004.92,0001.90
2023-09-04 15:24:00,SystemResetWarning,0824.5,4.99,000.00,029.6,026.4,000.0,037.3,030.2,33.1,0000.0,0002.51,0004.81,0001.89
2023-09-04 15:25:00,SystemResetWarning,0824.5,5.00,000.00,029.5,025.1,000.0,037.2,029.8,32.6,0000.0,0002.47,0004.03,0001.88
2023-09-04 15:26:00,SystemResetWarning,0824.6,5.00,000.00,029.4,024.7,000.0,037.2,029.6,33.4,0000.0,0002.40,0003.76,0001.87
2023-09-04 15:27:00,SystemResetWarning,0824.6,5.01,000.00,029.3,024.9,000.0,037.2,029.6,33.9,0000.0,0002.42,0003.79,0001.88
2023-09-04 15:28:00,SystemResetWarning,0824.5,5.00,000.00,029.2,025.2,000.0,037.3,029.7,33.8,0000.0,0002.46,0004.37,0001.88
2023-09-04 15:29:00,SystemResetWarning,0824.5,5.00,000.00,029.2,025.6,000.0,037.3,029.8,33.0,0000.0,0002.44,0004.35,0001.89
2023-09-04 15:30:00,SystemResetWarning,0824.4,5.00,000.00,029.2,026.0,000.0,037.3,029.9,32.8,0000.0,0002.50,0004.84,0001.90
2023-09-04 15:31:00,SystemResetWarning,0824.4,4.99,000.00,029.2,026.3,000.0,037.3,030.0,33.0,0000.0,0002.50,0006.13,0001.91
2023-09-04 15:32:00,SystemResetWarning,0824.4,5.00,000.00,029.2,026.6,000.0,037.4,030.0,33.3,0000.0,0002.50,0006.72,0001.92
2023-09-04 15:33:00,SystemResetWarning,0824.4,5.00,000.00,029.2,026.8,000.0,037.4,030.1,32.8,0000.0,0002.47,0006.61,0001.93
2023-09-04 15:34:00,SystemResetWarning,0824.4,4.99,000.00,029.2,027.0,000.0,037.4,030.2,33.2,0000.0,0002.49,0006.65,0001.94
2023-09-04 15:35:00,SystemResetWarning,0824.4,4.99,000.00,029.3,027.1,000.0,037.4,030.2,32.9,0000.0,0002.52,0007.06,0001.95
2023-09-04 15:36:00,SystemResetWarning,0824.4,4.99,000.00,029.3,026.1,000.0,037.3,030.0,32.7,0000.0,0002.57,0006.99,0001.97
2023-09-04 15:37:00,SystemResetWarning,0824.4,5.00,000.00,029.1,025.0,000.0,037.2,029.6,33.0,0000.0,0002.59,0007.09,0001.99
2023-09-04 15:38:00,SystemResetWarning,0824.3,5.00,000.00,029.0,024.7,000.0,037.2,029.5,33.4,0000.0,0002.58,0007.01,0001.99
2023-09-04 15:39:00,SystemResetWarning,0824.3,5.01,000.00,028.9,025.0,000.0,037.2,029.5,33.2,0000.0,0002.59,0006.81,0002.02
2023-09-04 15:40:00,SystemResetWarning,0824.3,5.00,000.00,028.8,025.3,000.0,037.2,029.6,33.9,0000.0,0002.69,0007.85,0002.03
2023-09-04 15:41:00,SystemResetWarning,0824.3,5.00,000.00,028.8,025.7,000.0,037.2,029.7,33.7,0000.0,0002.70,0008.00,0002.04
2023-09-04 15:42:00,SystemResetWarning,0824.3,5.00,000.00,028.8,026.1,000.0,037.2,029.9,34.0,0000.0,0002.74,0008.36,0002.06
2023-09-04 15:43:00,SystemResetWarning,0824.3,5.00,000.00,028.9,026.4,000.0,037.2,029.9,34.6,0000.0,0002.77,0007.80,0002.08
2023-09-04 15:44:00,SystemResetWarning,0824.4,5.00,000.00,028.9,026.6,000.0,037.2,030.0,33.9,0000.0,0002.83,0007.84,0002.09
2023-09-04 15:45:00,SystemResetWarning,0824.4,5.01,000.00,028.9,026.9,000.0,037.2,030.1,33.2,0000.0,0002.84,0007.88,0002.11
2023-09-04 15:46:00,SystemResetWarning,0824.4,4.99,000.00,029.0,027.0,000.0,037.2,030.2,34.4,0000.0,0002.85,0007.74,0002.13
2023-09-04 15:47:00,SystemResetWarning,0824.3,4.99,000.00,029.0,026.3,000.0,037.1,030.0,34.3,0000.0,0002.84,0007.66,0002.16
2023-09-04 15:48:00,SystemResetWarning,0824.4,5.00,000.00,028.9,025.2,000.0,037.1,029.5,34.5,0000.0,0002.85,0007.66,0002.17
2023-09-04 15:49:00,SystemResetWarning,0824.4,5.01,000.00,028.8,024.8,000.0,037.0,029.5,34.0,0000.0,0002.98,0007.84,0002.19
2023-09-04 15:50:00,SystemResetWarning,0824.4,5.01,000.00,028.7,025.0,000.0,037.0,029.4,34.0,0000.0,0003.07,0008.27,0002.21
2023-09-04 15:51:00,SystemResetWarning,0824.4,5.00,000.00,028.6,025.3,000.0,037.0,029.5,33.3,0000.0,0003.01,0007.57,0002.23
2023-09-04 15:52:00,SystemResetWarning,0824.4,5.00,000.00,028.6,025.7,000.0,037.0,029.6,33.4,0000.0,0003.01,0007.25,0002.25
2023-09-04 15:53:00,SystemResetWarning,0824.4,5.00,000.00,028.6,026.0,000.0,037.0,029.8,33.8,0000.0,0002.99,0005.53,0002.26
2023-09-04 15:54:00,SystemResetWarning,0824.3,5.00,000.00,028.6,026.3,000.0,037.0,029.8,33.7,0000.0,0003.01,0005.40,0002.28
2023-09-04 15:55:00,SystemResetWarning,0824.3,5.00,000.00,028.7,026.6,000.0,037.0,029.9,34.0,0000.0,0002.98,0005.31,0002.30
2023-09-04 15:56:00,SystemResetWarning,0824.3,5.00,000.00,028.7,026.8,000.0,037.0,030.0,33.7,0000.0,0002.96,0005.21,0002.32
2023-09-04 15:57:00,SystemResetWarning,0824.2,5.00,000.00,028.7,027.0,000.0,037.0,030.1,33.9,0000.0,0002.98,0005.35,0002.32
2023-09-04 15:58:00,SystemResetWarning,0824.2,4.98,000.00,028.8,027.0,000.0,037.0,030.1,34.0,0000.0,0002.99,0005.56,0002.30
2023-09-04 15:59:00,SystemResetWarning,0824.1,4.98,000.00,028.7,026.0,000.0,036.9,029.7,34.8,0000.0,0002.97,0005.58,0002.31
